Weather in Dhaka

Bangladesh     23°46′00″N   90°22′51″E
temp.,
°C
wind,
m/s
gust,
m/s
humid.,
%
clouds,
%
prec.,
mm/h
press.,
hPa
HPBL,
m
21 june, mon
mon2100:00+25se369137 0.3 1004188
03:00+24ese379523 0.0 1003223
06:00+25se389445 0.0 1004276
09:00+29se457768 1.9 1004663
12:00+30sse456862 4.2 10031154
15:00+31s456836 4.4 10011044
18:00+30s35738 7.5 1001488
21:00+27sse24865 3.8 1003104
22 june, tue
tue2200:00+26se359342 6.2 1003157
03:00+26s249185 6.4 1003175
06:00+26se249076 8.5 1004155
09:00+30sse566922 0.6 1005923
12:00+32s566170 1.6 10041328
15:00+32s566264 2.8 10021332
18:00+30s5870100 4.5 1002706
21:00+28s510796 0.3 1005560
23 june, wed
wed2300:00+27sse4108378 0.3 1005501
03:00+27sse488699 0.0 1004439
06:00+27se4887100 0.0 1005408
09:00+31sse5667100 0.0 10061006
12:00+34s5554100 1.1 10051624
15:00+33s565987 0.8 10031171
18:00+31s686674 1.3 1003719
21:00+29sse5107694 0.0 1005551
24 june, thu
thu2400:00+28sse488066 0.0 1005412
03:00+27sse488579 0.0 1003396
06:00+27sse4985100 0.0 1003442
09:00+32s676112 0.0 10041167
12:00+34s665471 0.0 10021658
15:00+33s665762 0.5 10001193
18:00+31sse6972100 6.8 1000866
21:00+28s5118289 0.6 1002605
25 june, fri
fri2500:00+28s5118597 0.8 1001557
03:00+27sse51086100 1.4 1000488
06:00+27sse4987100 1.4 1000459
09:00+30sse6871100 1.9 1001847
12:00+33s7761100 2.1 10011262
15:00+29sse6977100 0.0 999603
18:00+28sse5883100 0.8 999444
21:00+28sse51084100 0.1 1001515